Location: Nebraska Star Party
(42.6000°N, 100.8833°W)
Time: 08:20:59
(UTC-05:00)

Amateur Radio Satellites - All Passes

Search period start: 01 November 2014 07:50
Search period end: 02 November 2014 06:50
Location: Nebraska Star Party, 42.6000°N, 100.8833°W

Satellite Date Start Highest point End Downlink Frequencies (MHz)
Time Altitude Azimuth
STRAND 1 01 Nov 07:56:49 08:01:55 69° 258° (WSW) 08:07:05 ?
RS-15 01 Nov 07:59:52 08:10:40 57° 247° (WSW) 08:21:57 29.354 - 29.394 USB, Beacon 29.352 USB
Uosat F 01 Nov 08:02:21 08:04:40 13° 302° (WNW) 08:06:57 435.120 FM
MaSat-1 01 Nov 08:05:57 08:08:20 38° 60° (ENE) 08:10:34 437.345 MHz
JAS-2 01 Nov 08:16:49 08:24:11 46° 294° (WNW) 08:31:21 435.800 - 435.900 CW/SSB, 435.910 FM
AO-7 01 Nov 08:39:09 08:44:18 18° 313° (NW) 08:49:29 29.400 - 29.500 MHz
Hamsat 01 Nov 08:39:20 08:42:31 21° 293° (WNW) 08:45:43 145.90 MHz
SO-67 01 Nov 08:53:20 08:56:48 89° 103° (ESE) 09:00:15 435.3500 MHz FM
KITSAT 1 01 Nov 10:00:44 10:04:55 15° 99° (E) 10:09:05 435.175 FM
PCSat 01 Nov 10:01:43 10:03:11 11° 32° (NNE) 10:04:40 145.825 MHz
JAS-2 01 Nov 10:06:30 10:07:16 10° 314° (NW) 10:08:03 435.800 - 435.900 CW/SSB, 435.910 FM
HO-68 01 Nov 10:07:28 10:14:06 38° 98° (E) 10:20:41 435.675 MHz FM
RS-15 01 Nov 10:20:00 10:20:28 10° 267° (W) 10:20:56 29.354 - 29.394 USB, Beacon 29.352 USB
ISS 01 Nov 10:24:31 10:27:27 30° 137° (SE) 10:30:25 145.800 FM
UKube-1 01 Nov 10:49:23 10:53:07 27° 96° (E) 10:56:49 145.840 MHz, 145.915 MHz
ZACube-1 01 Nov 11:01:10 11:03:34 15° 91° (E) 11:05:56 437.345 MHz
Sapphire 01 Nov 11:21:21 11:26:13 32° 49° (NE) 11:31:02 437.095 MHz 1200 baud AX-25 AFSK
Oscar 11 01 Nov 11:23:06 11:27:23 64° 101° (E) 11:31:40 145.825 FM, Beacon 2401.500 USB
SO-50 01 Nov 11:37:26 11:41:41 43° 117° (ESE) 11:46:05 436.795 FM
FUNcube-1 01 Nov 11:42:33 11:46:32 42° 98° (E) 11:50:28 145.950 - 145.970 MHz USB
PCSat 01 Nov 11:42:43 11:47:59 48° 54° (NE) 11:53:13 145.825 MHz
KITSAT 1 01 Nov 11:50:56 11:58:59 78° 118° (ESE) 12:07:04 435.175 FM
HO-68 01 Nov 11:55:08 12:01:50 44° 296° (WNW) 12:08:30 435.675 MHz FM
ISS 01 Nov 12:00:56 12:04:05 39° 334° (NNW) 12:07:15 145.800 FM
UOSAT-12 01 Nov 12:19:01 12:20:24 11° 107° (ESE) 12:21:47 437.025 FM, 437.400 FM
UKube-1 01 Nov 12:25:30 12:29:15 28° 292° (WNW) 12:32:59 145.840 MHz, 145.915 MHz
ZACube-1 01 Nov 12:36:13 12:40:15 46° 288° (WNW) 12:44:12 437.345 MHz
Oscar 19 01 Nov 12:54:10 12:56:38 14° 59° (ENE) 12:59:06 437.125 CW, 437.150 USB
Oscar 11 01 Nov 13:01:02 13:03:02 13° 298° (WNW) 13:05:03 145.825 FM, Beacon 2401.500 USB
Sapphire 01 Nov 13:04:39 13:09:44 41° 248° (WSW) 13:14:47 437.095 MHz 1200 baud AX-25 AFSK
SO-50 01 Nov 13:18:36 13:22:25 26° 316° (NW) 13:26:21 436.795 FM
FUNcube-1 01 Nov 13:19:51 13:22:35 17° 295° (WNW) 13:25:19 145.950 - 145.970 MHz USB
PCSat 01 Nov 13:26:43 13:31:06 25° 252° (WSW) 13:35:27 145.825 MHz
AO-27 01 Nov 13:33:10 13:35:41 14° 58° (ENE) 13:38:12 436.795 MHz FM
Oscar 16 01 Nov 13:38:49 13:43:25 34° 67° (ENE) 13:48:02 437.025 USB, Beacon 2401.1428
ISS 01 Nov 13:39:04 13:41:26 18° 354° (N) 13:43:48 145.800 FM
KITSAT 1 01 Nov 13:48:16 13:55:12 30° 321° (NW) 14:02:10 435.175 FM
JAS-1B 01 Nov 13:54:11 13:59:33 44° 68° (ENE) 14:05:01 435.800 - 435.900 CW/SSB
UOSAT-12 01 Nov 13:55:09 13:59:48 86° 304° (WNW) 14:04:33 437.025 FM, 437.400 FM
Gurwin Techsat 1B 01 Nov 13:55:39 13:57:25 12° 56° (ENE) 13:59:10 435.225 FM
AO-Echo 01 Nov 14:05:05 14:09:28 31° 66° (ENE) 14:13:58 ?
Uribyol 2 01 Nov 14:13:49 14:18:24 32° 66° (ENE) 14:22:59 436.500 FM
Saudisat 1A 01 Nov 14:21:16 14:25:08 28° 46° (NE) 14:28:58 436.775 MHz
ITAMSAT 1 01 Nov 14:21:55 14:26:37 35° 67° (ENE) 14:31:21 435.822 SSB
Oscar 19 01 Nov 14:30:07 14:35:16 84° 256° (WSW) 14:40:26 437.125 CW, 437.150 USB
AO-27 01 Nov 15:09:13 15:14:27 87° 256° (WSW) 15:19:44 436.795 MHz FM
ISS 01 Nov 15:16:18 15:18:59 22° 15° (NNE) 15:21:40 145.800 FM
Oscar 16 01 Nov 15:18:17 15:22:46 30° 264° (W) 15:27:17 437.025 USB, Beacon 2401.1428
Gurwin Techsat 1B 01 Nov 15:31:11 15:36:29 79° 75° (ENE) 15:41:50 435.225 FM
TMSAT-1 01 Nov 15:36:50 15:42:05 67° 73° (ENE) 15:47:22 436.925 FM
UOSAT-12 01 Nov 15:37:47 15:40:40 16° 324° (NW) 15:43:35 437.025 FM, 437.400 FM
AO-Echo 01 Nov 15:43:38 15:48:08 33° 264° (W) 15:52:48 ?
JAS-1B 01 Nov 15:46:04 15:50:34 24° 267° (W) 15:55:05 435.800 - 435.900 CW/SSB
KITSAT 1 01 Nov 15:50:07 15:53:48 13° 349° (N) 15:57:29 435.175 FM
AO-7 01 Nov 15:52:34 15:59:58 38° 59° (ENE) 16:07:23 29.400 - 29.500 MHz
Uribyol 2 01 Nov 15:53:05 15:57:47 34° 263° (W) 16:02:32 436.500 FM
Uosat F 01 Nov 15:59:04 16:02:14 17° 61° (ENE) 16:05:24 435.120 FM
Saudisat 1A 01 Nov 16:00:42 16:04:45 36° 244° (WSW) 16:08:47 436.775 MHz
ITAMSAT 1 01 Nov 16:01:34 16:06:07 30° 264° (W) 16:10:42 435.822 SSB
JAS-2 01 Nov 16:46:14 16:50:48 20° 55° (NE) 16:55:41 435.800 - 435.900 CW/SSB, 435.910 FM
ISS 01 Nov 16:52:43 16:56:04 82° 34° (NNE) 16:59:24 145.800 FM
AO-27 01 Nov 16:53:55 16:54:42 10° 273° (W) 16:55:29 436.795 MHz FM
Gurwin Techsat 1B 01 Nov 17:14:38 17:17:04 13° 271° (W) 17:19:30 435.225 FM
TMSAT-1 01 Nov 17:19:19 17:22:29 16° 270° (W) 17:25:40 436.925 FM
Uosat F 01 Nov 17:35:30 17:40:29 65° 258° (WSW) 17:45:31 435.120 FM
AO-7 01 Nov 17:44:30 17:52:30 52° 258° (WSW) 18:00:34 29.400 - 29.500 MHz
KITSAT 1 01 Nov 17:48:36 17:53:20 16° 21° (NNE) 17:58:04 435.175 FM
Hamsat 01 Nov 17:57:06 18:00:39 27° 69° (ENE) 18:04:12 145.90 MHz
OPAL 01 Nov 18:09:24 18:12:48 18° 94° (E) 18:16:11 ?
JAS-2 01 Nov 18:28:25 18:34:47 85° 256° (WSW) 18:42:03 435.800 - 435.900 CW/SSB, 435.910 FM
SO-50 01 Nov 18:29:30 18:31:05 11° 31° (NNE) 18:32:40 436.795 FM
ISS 01 Nov 18:30:47 18:32:19 13° 230° (SW) 18:33:51 145.800 FM
Oscar 10/S400 01 Nov 19:04:08 19:27:32 57° 184° (S) 02:43:54 145.825 - 145.975 CW/USB, Beacon 145.810 USB
AO-40 01 Nov 19:12:08 22:50:05 36° 192° (SSW) 03:07:38 Beacon 2401.320
SO-67 01 Nov 19:26:35 19:29:37 29° 72° (ENE) 19:32:39 435.3500 MHz FM
Hamsat 01 Nov 19:33:05 19:36:33 25° 265° (W) 19:40:02 145.90 MHz
KITSAT 1 01 Nov 19:43:32 19:51:12 44° 47° (NE) 19:58:50 435.175 FM
OPAL 01 Nov 19:47:10 19:51:59 53° 291° (WNW) 19:56:47 ?
STRAND 1 01 Nov 20:06:55 20:11:42 38° 98° (E) 20:16:27 ?
SO-50 01 Nov 20:08:02 20:12:46 51° 51° (NE) 20:17:31 436.795 FM
RS-15 01 Nov 20:15:36 20:23:19 23° 101° (E) 20:30:58 29.354 - 29.394 USB, Beacon 29.352 USB
JAS-2 01 Nov 20:17:49 20:21:04 14° 277° (W) 20:24:31 435.800 - 435.900 CW/SSB, 435.910 FM
HO-68 01 Nov 20:37:10 20:43:19 32° 60° (ENE) 20:49:30 435.675 MHz FM
UOSAT-12 01 Nov 20:45:04 20:48:13 17° 38° (NE) 20:51:20 437.025 FM, 437.400 FM
SO-67 01 Nov 21:00:33 21:02:39 15° 267° (W) 21:04:45 435.3500 MHz FM
KITSAT 1 01 Nov 21:39:02 21:46:41 49° 248° (WSW) 21:54:19 435.175 FM
MaSat-1 01 Nov 21:42:49 21:44:17 12° 106° (ESE) 21:45:42 437.345 MHz
UKube-1 01 Nov 21:45:35 21:49:14 27° 67° (ENE) 21:52:54 145.840 MHz, 145.915 MHz
STRAND 1 01 Nov 21:46:24 21:50:44 28° 295° (WNW) 21:55:02 ?
SO-50 01 Nov 21:49:19 21:53:01 22° 249° (WSW) 21:56:43 436.795 FM
ZACube-1 01 Nov 21:58:32 22:01:13 16° 64° (ENE) 22:03:52 437.345 MHz
Oscar 11 01 Nov 22:18:37 22:22:49 54° 73° (ENE) 22:27:02 145.825 FM, Beacon 2401.500 USB
RS-15 01 Nov 22:23:05 22:34:06 90° 122° (ESE) 22:45:06 29.354 - 29.394 USB, Beacon 29.352 USB
HO-68 01 Nov 22:23:44 22:30:41 54° 259° (W) 22:37:43 435.675 MHz FM
UOSAT-12 01 Nov 22:24:15 22:29:00 84° 238° (WSW) 22:33:38 437.025 FM, 437.400 FM
FUNcube-1 01 Nov 22:39:14 22:43:26 39° 71° (ENE) 22:47:33 145.950 - 145.970 MHz USB
MaSat-1 01 Nov 23:15:38 23:19:20 49° 299° (WNW) 23:22:41 437.345 MHz
UKube-1 01 Nov 23:21:32 23:25:19 29° 264° (W) 23:29:09 145.840 MHz, 145.915 MHz
ZACube-1 01 Nov 23:32:45 23:37:12 55° 260° (W) 23:41:34 437.345 MHz
Oscar 11 01 Nov 23:57:05 23:59:19 14° 269° (W) 00:01:34 145.825 FM, Beacon 2401.500 USB
FUNcube-1 02 Nov 00:16:34 00:19:55 20° 267° (W) 00:23:14 145.950 - 145.970 MHz USB
RS-15 02 Nov 00:38:25 00:48:00 34° 329° (NNW) 00:57:43 29.354 - 29.394 USB, Beacon 29.352 USB
JAS-1B 02 Nov 01:37:10 01:40:57 14° 89° (E) 01:44:58 435.800 - 435.900 CW/SSB
Oscar 16 02 Nov 01:52:31 01:53:28 10° 88° (E) 01:54:25 437.025 USB, Beacon 2401.1428
Sapphire 02 Nov 01:04:53 01:09:01 23° 107° (ESE) 01:13:11 437.095 MHz 1200 baud AX-25 AFSK
PCSat 02 Nov 01:25:22 01:30:18 37° 111° (ESE) 01:35:15 145.825 MHz
ITAMSAT 1 02 Nov 01:36:32 01:37:56 11° 88° (E) 01:39:20 435.822 SSB
Oscar 19 02 Nov 01:41:20 01:45:55 32° 96° (E) 01:50:29 437.125 CW, 437.150 USB
RS-15 02 Nov 01:56:52 02:05:01 23° 4° (N) 02:13:20 29.354 - 29.394 USB, Beacon 29.352 USB
AO-27 02 Nov 02:21:58 02:26:38 32° 96° (E) 02:31:15 436.795 MHz FM
JAS-1B 02 Nov 02:24:57 02:32:12 77° 104° (ESE) 02:40:54 435.800 - 435.900 CW/SSB
Oscar 16 02 Nov 02:28:21 02:33:31 90° 301° (WNW) 02:38:38 437.025 USB, Beacon 2401.1428
Sapphire 02 Nov 02:46:47 02:52:03 53° 305° (NW) 02:57:23 437.095 MHz 1200 baud AX-25 AFSK
Gurwin Techsat 1B 02 Nov 02:47:09 02:51:47 30° 95° (E) 02:56:24 435.225 FM
AO-Echo 02 Nov 02:49:22 02:54:44 78° 103° (ESE) 02:59:59 ?
TMSAT-1 02 Nov 02:52:35 02:56:55 25° 94° (E) 03:01:13 436.925 FM
Uribyol 2 02 Nov 03:04:27 03:09:41 82° 104° (ESE) 03:14:51 436.500 FM
PCSat 02 Nov 03:08:48 03:13:43 35° 310° (NW) 03:18:41 145.825 MHz
ITAMSAT 1 02 Nov 03:12:52 03:18:07 89° 285° (WNW) 03:23:19 435.822 SSB
Oscar 19 02 Nov 03:20:43 03:25:12 32° 293° (WNW) 03:29:41 437.125 CW, 437.150 USB
AO-27 02 Nov 04:01:28 04:06:06 33° 293° (WNW) 04:10:43 436.795 MHz FM
Oscar 16 02 Nov 04:09:58 04:12:06 13° 302° (WNW) 04:14:14 437.025 USB, Beacon 2401.1428
RS-15 02 Nov 04:11:15 04:21:33 41° 38° (NE) 04:32:12 29.354 - 29.394 USB, Beacon 29.352 USB
JAS-1B 02 Nov 04:16:52 04:22:19 24° 299° (WNW) 04:28:27 435.800 - 435.900 CW/SSB
OPAL 02 Nov 04:24:26 04:29:07 38° 66° (ENE) 04:33:44 ?
Gurwin Techsat 1B 02 Nov 04:26:57 04:31:47 36° 292° (WNW) 04:36:35 435.225 FM
AO-Echo 02 Nov 04:29:44 04:32:48 16° 300° (WNW) 04:35:52 ?
TMSAT-1 02 Nov 04:31:59 04:36:59 43° 291° (WNW) 04:41:57 436.925 FM
Sapphire 02 Nov 04:34:49 04:36:46 12° 327° (NNW) 04:38:44 437.095 MHz 1200 baud AX-25 AFSK
JAS-2 02 Nov 04:38:38 04:43:32 18° 85° (E) 04:48:19 435.800 - 435.900 CW/SSB, 435.910 FM
Uosat F 02 Nov 04:42:40 04:47:20 36° 98° (E) 04:51:57 435.120 FM
AO-7 02 Nov 04:44:48 04:52:56 53° 102° (ESE) 05:01:01 29.400 - 29.500 MHz
Uribyol 2 02 Nov 04:45:47 04:48:26 14° 302° (WNW) 04:51:06 436.500 FM
ITAMSAT 1 02 Nov 04:54:34 04:56:49 13° 303° (WNW) 04:59:04 435.822 SSB
Saudisat 1A 02 Nov 05:07:12 05:11:24 48° 118° (ESE) 05:15:38 436.775 MHz
OPAL 02 Nov 06:03:45 06:08:03 27° 262° (W) 06:12:19 ?
Hamsat 02 Nov 06:16:58 06:21:06 50° 99° (E) 06:25:14 145.90 MHz
JAS-2 02 Nov 06:21:37 06:29:34 86° 104° (ESE) 06:37:09 435.800 - 435.900 CW/SSB, 435.910 FM
Uosat F 02 Nov 06:21:43 06:25:58 28° 295° (WNW) 06:30:12 435.120 FM
STRAND 1 02 Nov 06:23:23 06:28:26 59° 72° (ENE) 06:33:30 ?
RS-15 02 Nov 06:23:42 06:34:49 72° 243° (WSW) 06:46:25 29.354 - 29.394 USB, Beacon 29.352 USB
MaSat-1 02 Nov 06:24:30 06:26:08 16° 54° (NE) 06:27:42 437.345 MHz
